GLO8878 SBPS-SBCF

Flight info

Callsign GLO8878
Flight time 1h 35m
Altitude 30000
Route EDRAG DCT DORDU DCT OPTEB
Aircraft B738/M-SDE2E3FGHIRWXY/LB1

Departure

Time 2026-04-28 21:29
Airport Porto Seguro International Airport (SBPS)

Arrival

Time 2026-04-28 23:04
Airport Tancredo Neves International Airport (SBCF)
Time Latitude Longitude Altitude Speed Heading
2026-04-28 21:18 -16.44099 -39.08229 172 ft 0 kts 180°
2026-04-28 21:22 -16.44086 -39.08230 173 ft 4 kts 179°
2026-04-28 21:23 -16.44059 -39.08228 172 ft 2 kts 201°
2026-04-28 21:23 -16.44049 -39.08222 172 ft 2 kts 239°
2026-04-28 21:23 -16.44045 -39.08211 172 ft 2 kts 252°
2026-04-28 21:23 -16.44043 -39.08206 172 ft 0 kts 254°
2026-04-28 21:25 -16.44044 -39.08210 172 ft 3 kts 254°
2026-04-28 21:25 -16.44053 -39.08244 172 ft 10 kts 254°
2026-04-28 21:25 -16.44017 -39.08299 173 ft 12 kts 342°
2026-04-28 21:26 -16.43927 -39.08370 172 ft 14 kts 257°
2026-04-28 21:26 -16.43956 -39.08480 173 ft 18 kts 254°
2026-04-28 21:26 -16.43980 -39.08569 174 ft 20 kts 254°
2026-04-28 21:26 -16.44021 -39.08720 176 ft 24 kts 254°
2026-04-28 21:27 -16.44064 -39.08881 179 ft 17 kts 256°
2026-04-28 21:27 -16.44050 -39.08989 180 ft 7 kts 241°
2026-04-28 21:27 -16.44092 -39.08980 180 ft 7 kts 105°
2026-04-28 21:27 -16.44089 -39.08966 180 ft 0 kts 74°
2026-04-28 21:28 -16.44047 -39.08812 178 ft 66 kts 74°
2026-04-28 21:28 -16.43836 -39.08038 170 ft 153 kts 74°
2026-04-28 21:28 -16.43480 -39.06762 469 ft 202 kts 73°
2026-04-28 21:29 -16.43081 -39.05346 1438 ft 209 kts 75°
2026-04-28 21:29 -16.42676 -39.03807 2135 ft 227 kts 76°
2026-04-28 21:29 -16.42651 -39.02184 2987 ft 230 kts 108°
2026-04-28 21:29 -16.43576 -39.00819 3860 ft 238 kts 139°
2026-04-28 21:30 -16.45091 -39.00074 4778 ft 247 kts 166°
2026-04-28 21:30 -16.46839 -39.00037 5677 ft 257 kts 183°
2026-04-28 21:30 -16.48624 -39.00296 6733 ft 260 kts 186°
2026-04-28 21:30 -16.50424 -39.00601 7759 ft 263 kts 186°
2026-04-28 21:31 -16.52260 -39.00906 8681 ft 271 kts 186°
2026-04-28 21:31 -16.54150 -39.01206 9610 ft 277 kts 185°
2026-04-28 21:31 -16.56074 -39.01498 10460 ft 283 kts 185°
2026-04-28 21:31 -16.58080 -39.01795 10858 ft 308 kts 185°
2026-04-28 21:32 -16.60302 -39.02122 11074 ft 338 kts 187°
2026-04-28 21:32 -16.62608 -39.02971 11296 ft 368 kts 212°
2026-04-28 21:32 -16.64493 -39.04833 11980 ft 378 kts 229°
2026-04-28 21:32 -16.66154 -39.06978 12844 ft 381 kts 231°
2026-04-28 21:33 -16.67793 -39.09167 13694 ft 384 kts 231°
2026-04-28 21:33 -16.69445 -39.11378 14428 ft 388 kts 231°
2026-04-28 21:33 -16.71058 -39.13518 15099 ft 393 kts 231°
2026-04-28 21:33 -16.72765 -39.15766 15761 ft 397 kts 231°
2026-04-28 21:34 -16.74498 -39.18033 16440 ft 401 kts 231°
2026-04-28 21:34 -16.76251 -39.20318 17118 ft 405 kts 231°
2026-04-28 21:34 -16.78026 -39.22630 17778 ft 409 kts 231°
2026-04-28 21:34 -16.79820 -39.24965 18402 ft 413 kts 232°
2026-04-28 21:35 -16.81627 -39.27318 18941 ft 417 kts 232°
2026-04-28 21:35 -16.83444 -39.29685 19497 ft 420 kts 232°
2026-04-28 21:35 -16.85282 -39.32080 20047 ft 423 kts 232°
2026-04-28 21:35 -16.87058 -39.34541 20572 ft 426 kts 240°
2026-04-28 21:36 -16.88132 -39.37416 21071 ft 427 kts 258°
2026-04-28 21:36 -16.88693 -39.40466 21638 ft 429 kts 261°
2026-04-28 21:36 -16.89224 -39.43544 22124 ft 433 kts 261°
2026-04-28 21:36 -16.89770 -39.46647 22595 ft 436 kts 260°
2026-04-28 21:37 -16.90335 -39.49721 23128 ft 438 kts 260°
2026-04-28 21:37 -16.90926 -39.52859 23598 ft 441 kts 260°
2026-04-28 21:37 -16.91523 -39.56004 23971 ft 444 kts 259°
2026-04-28 21:37 -16.92126 -39.59183 24359 ft 446 kts 260°
2026-04-28 21:38 -16.92729 -39.62369 24749 ft 448 kts 259°
2026-04-28 21:38 -16.93333 -39.65570 25127 ft 450 kts 259°
2026-04-28 21:38 -16.93940 -39.68785 25491 ft 452 kts 259°
2026-04-28 21:38 -16.94547 -39.72010 25825 ft 455 kts 259°
2026-04-28 21:39 -16.95159 -39.75261 26147 ft 457 kts 259°
2026-04-28 21:39 -16.95774 -39.78534 26512 ft 458 kts 259°
2026-04-28 21:39 -16.96389 -39.81809 26838 ft 461 kts 259°
2026-04-28 21:39 -16.97008 -39.85103 27116 ft 464 kts 259°
2026-04-28 21:40 -16.97628 -39.88413 27435 ft 465 kts 259°
2026-04-28 21:40 -16.98259 -39.91735 27797 ft 465 kts 258°
2026-04-28 21:40 -16.98969 -39.95002 28072 ft 468 kts 257°
2026-04-28 21:40 -16.99758 -39.98307 28334 ft 470 kts 256°
2026-04-28 21:41 -17.00548 -40.01513 28629 ft 471 kts 256°
2026-04-28 21:41 -17.01365 -40.04828 28921 ft 472 kts 256°
2026-04-28 21:41 -17.02177 -40.08155 29186 ft 473 kts 256°
2026-04-28 21:41 -17.02980 -40.11489 29523 ft 472 kts 256°
2026-04-28 21:42 -17.03771 -40.14812 29965 ft 470 kts 256°
2026-04-28 21:42 -17.04556 -40.18132 30047 ft 472 kts 256°
2026-04-28 21:42 -17.06122 -40.24796 30057 ft 469 kts 256°
2026-04-28 21:43 -17.07660 -40.31355 30066 ft 467 kts 256°
2026-04-28 21:43 -17.09206 -40.37953 30065 ft 467 kts 256°
2026-04-28 21:44 -17.10753 -40.44564 30065 ft 468 kts 256°
2026-04-28 21:44 -17.12299 -40.51178 30067 ft 468 kts 256°
2026-04-28 21:45 -17.13843 -40.57792 30051 ft 468 kts 256°
2026-04-28 21:45 -17.15386 -40.64413 30052 ft 469 kts 256°
2026-04-28 21:46 -17.16917 -40.70995 30055 ft 469 kts 256°
2026-04-28 21:46 -17.18458 -40.77625 30053 ft 469 kts 256°
2026-04-28 21:47 -17.19994 -40.84250 30055 ft 469 kts 256°
2026-04-28 21:47 -17.21533 -40.90894 30052 ft 469 kts 256°
2026-04-28 21:48 -17.23067 -40.97533 30057 ft 469 kts 256°
2026-04-28 21:48 -17.24575 -41.04068 30059 ft 469 kts 256°
2026-04-28 21:49 -17.26106 -41.10708 30064 ft 469 kts 256°
2026-04-28 21:49 -17.27634 -41.17350 30064 ft 469 kts 257°
2026-04-28 21:50 -17.29161 -41.23998 30059 ft 469 kts 257°
2026-04-28 21:50 -17.30682 -41.30630 30064 ft 469 kts 257°
2026-04-28 21:51 -17.32192 -41.37225 30069 ft 468 kts 257°
2026-04-28 21:51 -17.33705 -41.43844 30073 ft 468 kts 257°
2026-04-28 21:52 -17.35217 -41.50467 30072 ft 468 kts 257°
2026-04-28 21:52 -17.36728 -41.57094 30080 ft 467 kts 257°
2026-04-28 21:53 -17.38232 -41.63706 30076 ft 467 kts 257°
2026-04-28 21:53 -17.39740 -41.70343 30084 ft 467 kts 257°
2026-04-28 21:54 -17.41241 -41.76966 30086 ft 467 kts 257°
2026-04-28 21:54 -17.42731 -41.83546 30083 ft 467 kts 257°
2026-04-28 21:55 -17.44230 -41.90179 30083 ft 467 kts 257°
2026-04-28 21:55 -17.45802 -41.96783 30077 ft 467 kts 251°
2026-04-28 21:56 -17.48731 -42.02729 30086 ft 469 kts 234°
2026-04-28 21:56 -17.52963 -42.07943 30089 ft 470 kts 229°
2026-04-28 21:57 -17.57256 -42.13057 30085 ft 470 kts 230°
2026-04-28 21:57 -17.61544 -42.18230 30081 ft 470 kts 230°
2026-04-28 21:58 -17.65823 -42.23441 30086 ft 471 kts 230°
2026-04-28 21:58 -17.70090 -42.28652 30088 ft 471 kts 230°
2026-04-28 21:59 -17.74357 -42.33867 30086 ft 471 kts 230°
2026-04-28 22:00 -17.80739 -42.41670 30075 ft 471 kts 230°
2026-04-28 22:00 -17.85020 -42.46909 30082 ft 472 kts 230°
2026-04-28 22:01 -17.89289 -42.52137 30079 ft 471 kts 230°
2026-04-28 22:01 -17.93556 -42.57368 30078 ft 471 kts 230°
2026-04-28 22:02 -17.97821 -42.62600 30081 ft 471 kts 231°
2026-04-28 22:02 -18.02059 -42.67804 30079 ft 471 kts 231°
2026-04-28 22:03 -18.06322 -42.73043 30075 ft 471 kts 231°
2026-04-28 22:03 -18.10576 -42.78275 30075 ft 470 kts 231°
2026-04-28 22:04 -18.14825 -42.83504 30081 ft 470 kts 231°
2026-04-28 22:04 -18.19070 -42.88733 30078 ft 470 kts 231°
2026-04-28 22:05 -18.23311 -42.93962 30079 ft 469 kts 231°
2026-04-28 22:05 -18.27547 -42.99190 30075 ft 469 kts 231°
2026-04-28 22:06 -18.31718 -43.04342 30084 ft 469 kts 231°
2026-04-28 22:06 -18.35918 -43.09532 30080 ft 468 kts 231°
2026-04-28 22:06 -18.38047 -43.12143 29454 ft 473 kts 229°
2026-04-28 22:07 -18.40404 -43.14530 28927 ft 468 kts 220°
2026-04-28 22:07 -18.42973 -43.16594 28355 ft 463 kts 218°
2026-04-28 22:07 -18.45564 -43.18598 27782 ft 459 kts 218°
2026-04-28 22:07 -18.48130 -43.20570 27227 ft 455 kts 218°
2026-04-28 22:08 -18.50674 -43.22538 26679 ft 451 kts 218°
2026-04-28 22:08 -18.53183 -43.24498 26134 ft 447 kts 219°
2026-04-28 22:08 -18.55669 -43.26455 25565 ft 445 kts 219°
2026-04-28 22:08 -18.58135 -43.28407 25011 ft 442 kts 219°
2026-04-28 22:09 -18.60581 -43.30348 24460 ft 440 kts 219°
2026-04-28 22:09 -18.63020 -43.32285 23907 ft 438 kts 219°
2026-04-28 22:09 -18.65453 -43.34220 23306 ft 436 kts 219°
2026-04-28 22:09 -18.67867 -43.36139 22727 ft 433 kts 219°
2026-04-28 22:10 -18.70260 -43.38042 22180 ft 429 kts 219°
2026-04-28 22:10 -18.72601 -43.39903 21655 ft 425 kts 219°
2026-04-28 22:10 -18.74953 -43.41774 21127 ft 422 kts 219°
2026-04-28 22:10 -18.77312 -43.43651 20605 ft 418 kts 219°
2026-04-28 22:11 -18.79625 -43.45493 20097 ft 415 kts 219°
2026-04-28 22:11 -18.81923 -43.47322 19572 ft 412 kts 218°
2026-04-28 22:11 -18.84182 -43.49122 19056 ft 410 kts 218°
2026-04-28 22:11 -18.86454 -43.50933 18541 ft 408 kts 218°
2026-04-28 22:12 -18.88720 -43.52739 17979 ft 406 kts 218°
2026-04-28 22:12 -18.90967 -43.54531 17446 ft 403 kts 218°
2026-04-28 22:12 -18.93194 -43.56308 16922 ft 400 kts 218°
2026-04-28 22:12 -18.94666 -43.57483 16583 ft 398 kts 218°
2026-04-28 22:13 -18.97579 -43.59807 15918 ft 394 kts 218°
2026-04-28 22:13 -18.99757 -43.61547 15428 ft 391 kts 218°
2026-04-28 22:13 -19.01218 -43.62713 15092 ft 389 kts 218°
2026-04-28 22:13 -19.04066 -43.64965 14582 ft 384 kts 217°
2026-04-28 22:14 -19.05485 -43.66081 14343 ft 383 kts 217°
2026-04-28 22:14 -19.07618 -43.67756 13952 ft 382 kts 217°
2026-04-28 22:14 -19.09756 -43.69436 13549 ft 381 kts 217°
2026-04-28 22:14 -19.11879 -43.71107 13147 ft 380 kts 217°
2026-04-28 22:15 -19.13992 -43.72772 12771 ft 378 kts 217°
2026-04-28 22:15 -19.16096 -43.74431 12396 ft 377 kts 216°
2026-04-28 22:15 -19.18186 -43.76080 12030 ft 373 kts 216°
2026-04-28 22:15 -19.20253 -43.77711 11666 ft 367 kts 216°
2026-04-28 22:16 -19.22281 -43.79311 11305 ft 361 kts 215°
2026-04-28 22:16 -19.24276 -43.80887 10960 ft 355 kts 215°
2026-04-28 22:16 -19.26226 -43.82454 10608 ft 351 kts 218°
2026-04-28 22:16 -19.27982 -43.84225 10268 ft 347 kts 225°
2026-04-28 22:17 -19.29608 -43.86088 9990 ft 340 kts 226°
2026-04-28 22:17 -19.31157 -43.87907 10007 ft 324 kts 226°
2026-04-28 22:17 -19.32642 -43.89633 9961 ft 311 kts 225°
2026-04-28 22:17 -19.34084 -43.91284 9875 ft 300 kts 225°
2026-04-28 22:18 -19.35483 -43.92871 9803 ft 290 kts 225°
2026-04-28 22:18 -19.36850 -43.94411 9596 ft 285 kts 225°
2026-04-28 22:18 -19.38187 -43.95912 9328 ft 283 kts 225°
2026-04-28 22:18 -19.39520 -43.97408 9207 ft 275 kts 225°
2026-04-28 22:19 -19.40814 -43.98859 9087 ft 267 kts 225°
2026-04-28 22:19 -19.42030 -44.00223 8993 ft 259 kts 225°
2026-04-28 22:19 -19.43247 -44.01591 8896 ft 251 kts 225°
2026-04-28 22:19 -19.44401 -44.02961 8720 ft 247 kts 227°
2026-04-28 22:20 -19.45532 -44.04335 8452 ft 248 kts 227°
2026-04-28 22:20 -19.46664 -44.05708 8198 ft 247 kts 227°
2026-04-28 22:20 -19.47797 -44.07079 7884 ft 246 kts 227°
2026-04-28 22:20 -19.49105 -44.08207 7609 ft 242 kts 197°
2026-04-28 22:21 -19.50718 -44.08287 7390 ft 232 kts 159°
2026-04-28 22:21 -19.52054 -44.07401 7170 ft 226 kts 137°
2026-04-28 22:21 -19.53234 -44.06295 6928 ft 227 kts 136°
2026-04-28 22:21 -19.54403 -44.05199 6787 ft 227 kts 137°
2026-04-28 22:22 -19.55601 -44.04084 6586 ft 226 kts 137°
2026-04-28 22:22 -19.56765 -44.02997 6380 ft 225 kts 137°
2026-04-28 22:22 -19.57939 -44.01906 6131 ft 224 kts 137°
2026-04-28 22:22 -19.59109 -44.00823 5902 ft 223 kts 137°
2026-04-28 22:23 -19.60280 -43.99738 5659 ft 223 kts 136°
2026-04-28 22:23 -19.61445 -43.98661 5436 ft 222 kts 136°
2026-04-28 22:23 -19.62606 -43.97589 5203 ft 221 kts 136°
2026-04-28 22:23 -19.63765 -43.96519 4965 ft 221 kts 136°
2026-04-28 22:24 -19.64923 -43.95454 4723 ft 220 kts 136°
2026-04-28 22:24 -19.66082 -43.94391 4454 ft 219 kts 136°
2026-04-28 22:24 -19.67230 -43.93333 4209 ft 219 kts 136°
2026-04-28 22:24 -19.68374 -43.92268 3960 ft 218 kts 137°
2026-04-28 22:25 -19.69510 -43.91199 3713 ft 219 kts 136°
2026-04-28 22:25 -19.70641 -43.90135 3676 ft 221 kts 136°
2026-04-28 22:25 -19.71794 -43.89054 3637 ft 222 kts 136°
2026-04-28 22:25 -19.72945 -43.87971 3623 ft 220 kts 136°
2026-04-28 22:26 -19.74078 -43.86898 3624 ft 217 kts 136°
2026-04-28 22:26 -19.75202 -43.85832 3616 ft 217 kts 136°
2026-04-28 22:26 -19.76331 -43.84755 3628 ft 219 kts 136°
2026-04-28 22:26 -19.77469 -43.83674 3631 ft 220 kts 136°
2026-04-28 22:27 -19.78615 -43.82588 3633 ft 222 kts 136°
2026-04-28 22:27 -19.79767 -43.81494 3632 ft 223 kts 136°
2026-04-28 22:27 -19.80929 -43.80390 3632 ft 224 kts 136°
2026-04-28 22:27 -19.82097 -43.79280 3629 ft 225 kts 136°
2026-04-28 22:28 -19.83480 -43.77959 4175 ft 283 kts 136°
2026-04-28 22:28 -19.84879 -43.76621 4571 ft 287 kts 136°
2026-04-28 22:28 -19.86347 -43.75216 4342 ft 280 kts 136°
2026-04-28 22:28 -19.87777 -43.73854 4108 ft 273 kts 136°
2026-04-28 22:29 -19.89179 -43.72517 3907 ft 267 kts 137°
2026-04-28 22:29 -19.90525 -43.71204 3766 ft 258 kts 136°
2026-04-28 22:29 -19.91815 -43.69939 3696 ft 246 kts 137°
2026-04-28 22:29 -19.93040 -43.68720 3621 ft 236 kts 136°
2026-04-28 22:30 -19.94204 -43.67564 3612 ft 222 kts 136°
2026-04-28 22:30 -19.95306 -43.66475 3587 ft 212 kts 136°
2026-04-28 22:30 -19.96757 -43.65087 4661 ft 294 kts 136°
2026-04-28 22:30 -19.98263 -43.63679 5100 ft 292 kts 136°
2026-04-28 22:31 -19.99765 -43.62264 4825 ft 283 kts 136°
2026-04-28 22:31 -20.01214 -43.60893 4591 ft 276 kts 136°
2026-04-28 22:31 -20.02618 -43.59544 4339 ft 269 kts 137°
2026-04-28 22:31 -20.03979 -43.58219 4139 ft 262 kts 136°
2026-04-28 22:32 -20.05314 -43.56914 3919 ft 258 kts 136°
2026-04-28 22:32 -20.06613 -43.55639 3766 ft 250 kts 136°
2026-04-28 22:32 -20.07663 -43.54629 4919 ft 291 kts 137°
2026-04-28 22:32 -20.09140 -43.53233 5917 ft 298 kts 136°
2026-04-28 22:33 -20.10660 -43.51771 5667 ft 289 kts 136°
2026-04-28 22:33 -20.12123 -43.50363 5465 ft 279 kts 136°
2026-04-28 22:33 -20.13747 -43.48800 5868 ft 296 kts 136°
2026-04-28 22:33 -20.15250 -43.47348 5555 ft 285 kts 136°
2026-04-28 22:34 -20.16694 -43.45957 5346 ft 276 kts 136°
2026-04-28 22:34 -20.18102 -43.44602 5120 ft 271 kts 136°
2026-04-28 22:34 -20.19486 -43.43263 4872 ft 267 kts 136°
2026-04-28 22:34 -20.20390 -43.42386 4706 ft 264 kts 136°
2026-04-28 22:35 -20.22194 -43.40634 4377 ft 260 kts 136°
2026-04-28 22:35 -20.23076 -43.39777 4218 ft 258 kts 136°
2026-04-28 22:35 -20.24397 -43.38494 3979 ft 256 kts 136°
2026-04-28 22:35 -20.25702 -43.37228 3806 ft 251 kts 136°
2026-04-28 22:36 -20.26971 -43.36000 3708 ft 243 kts 136°
2026-04-28 22:36 -20.28201 -43.34816 3605 ft 232 kts 136°
2026-04-28 22:36 -20.29366 -43.33701 3587 ft 219 kts 136°
2026-04-28 22:36 -20.30491 -43.32623 3598 ft 217 kts 136°
2026-04-28 22:37 -20.31606 -43.31553 3596 ft 219 kts 136°
2026-04-28 22:37 -20.32744 -43.30461 3595 ft 221 kts 136°
2026-04-28 22:37 -20.33893 -43.29359 3595 ft 223 kts 136°
2026-04-28 22:37 -20.35048 -43.28246 3588 ft 225 kts 136°
2026-04-28 22:38 -20.36209 -43.27125 3580 ft 225 kts 136°
2026-04-28 22:38 -20.37370 -43.26005 3581 ft 225 kts 136°
2026-04-28 22:38 -20.38525 -43.24889 3575 ft 224 kts 136°
2026-04-28 22:38 -20.39686 -43.23769 3585 ft 224 kts 136°
2026-04-28 22:39 -20.40843 -43.22655 3589 ft 225 kts 136°
2026-04-28 22:39 -20.42004 -43.21535 3581 ft 225 kts 136°
2026-04-28 22:39 -20.43156 -43.20424 3579 ft 226 kts 136°
2026-04-28 22:39 -20.44317 -43.19304 3564 ft 225 kts 136°
2026-04-28 22:40 -20.45453 -43.18210 3750 ft 215 kts 136°
2026-04-28 22:40 -20.46566 -43.17138 4032 ft 218 kts 136°
2026-04-28 22:40 -20.47707 -43.16033 4291 ft 224 kts 136°
2026-04-28 22:40 -20.48864 -43.14908 4566 ft 225 kts 136°
2026-04-28 22:41 -20.49960 -43.13666 4726 ft 241 kts 121°
2026-04-28 22:41 -20.50431 -43.11861 4964 ft 267 kts 86°
2026-04-28 22:41 -20.49814 -43.10008 5175 ft 271 kts 52°
2026-04-28 22:41 -20.48302 -43.08843 5408 ft 273 kts 18°
2026-04-28 22:42 -20.46415 -43.08777 5654 ft 277 kts 346°
2026-04-28 22:42 -20.44574 -43.09395 5915 ft 278 kts 342°
2026-04-28 22:42 -20.42846 -43.10339 6069 ft 281 kts 325°
2026-04-28 22:42 -20.41348 -43.11650 6073 ft 282 kts 319°
2026-04-28 22:43 -20.39897 -43.13057 6073 ft 282 kts 318°
2026-04-28 22:43 -20.38462 -43.14464 6281 ft 280 kts 318°
2026-04-28 22:43 -20.37011 -43.15871 6564 ft 285 kts 319°
2026-04-28 22:43 -20.35531 -43.17285 6817 ft 286 kts 319°
2026-04-28 22:44 -20.34040 -43.18694 7058 ft 287 kts 320°
2026-04-28 22:44 -20.32529 -43.20106 7067 ft 289 kts 320°
2026-04-28 22:44 -20.31021 -43.21509 7070 ft 287 kts 320°
2026-04-28 22:44 -20.29516 -43.22902 7074 ft 287 kts 320°
2026-04-28 22:45 -20.28002 -43.24297 7082 ft 288 kts 320°
2026-04-28 22:45 -20.26483 -43.25695 7094 ft 289 kts 320°
2026-04-28 22:45 -20.24956 -43.27097 7108 ft 289 kts 320°
2026-04-28 22:45 -20.23428 -43.28498 7107 ft 290 kts 320°
2026-04-28 22:46 -20.21925 -43.29928 7090 ft 290 kts 313°
2026-04-28 22:46 -20.20571 -43.31510 7090 ft 288 kts 322°
2026-04-28 22:46 -20.18903 -43.32674 7107 ft 285 kts 330°
2026-04-28 22:46 -20.17207 -43.33775 7095 ft 286 kts 330°
2026-04-28 22:47 -20.15515 -43.34880 7106 ft 285 kts 330°
2026-04-28 22:47 -20.14394 -43.35613 7114 ft 285 kts 330°
2026-04-28 22:48 -20.08630 -43.39383 7108 ft 286 kts 330°
2026-04-28 22:48 -20.06953 -43.40478 7110 ft 286 kts 330°
2026-04-28 22:48 -20.05257 -43.41587 7109 ft 286 kts 330°
2026-04-28 22:48 -20.03560 -43.42696 7107 ft 286 kts 330°
2026-04-28 22:49 -20.01914 -43.43889 7106 ft 288 kts 316°
2026-04-28 22:49 -20.00819 -43.45667 7129 ft 289 kts 298°
2026-04-28 22:49 -19.99858 -43.47554 7113 ft 289 kts 302°
2026-04-28 22:49 -19.98757 -43.49336 7118 ft 289 kts 307°
2026-04-28 22:50 -19.97521 -43.51021 7126 ft 289 kts 311°
2026-04-28 22:50 -19.96188 -43.52622 7125 ft 290 kts 314°
2026-04-28 22:50 -19.94783 -43.54162 7110 ft 290 kts 316°
2026-04-28 22:50 -19.93335 -43.55652 7120 ft 289 kts 318°
2026-04-28 22:51 -19.91857 -43.57111 7124 ft 289 kts 319°
2026-04-28 22:51 -19.90382 -43.58526 7115 ft 289 kts 320°
2026-04-28 22:51 -19.88879 -43.59941 7114 ft 289 kts 320°
2026-04-28 22:51 -19.87363 -43.61351 7109 ft 289 kts 320°
2026-04-28 22:52 -19.85846 -43.62751 7122 ft 288 kts 321°
2026-04-28 22:52 -19.84325 -43.64146 7128 ft 289 kts 321°
2026-04-28 22:52 -19.82798 -43.65542 7122 ft 290 kts 321°
2026-04-28 22:52 -19.81265 -43.66940 7134 ft 291 kts 321°
2026-04-28 22:53 -19.79742 -43.68326 7121 ft 292 kts 321°
2026-04-28 22:53 -19.78199 -43.69730 7128 ft 292 kts 321°
2026-04-28 22:53 -19.76653 -43.71135 7127 ft 293 kts 321°
2026-04-28 22:53 -19.75089 -43.72556 7119 ft 292 kts 321°
2026-04-28 22:54 -19.73567 -43.73938 7127 ft 291 kts 321°
2026-04-28 22:54 -19.72023 -43.75339 7128 ft 291 kts 321°
2026-04-28 22:54 -19.70483 -43.76736 7125 ft 291 kts 321°
2026-04-28 22:54 -19.68943 -43.78133 7125 ft 291 kts 321°
2026-04-28 22:55 -19.67402 -43.79530 7139 ft 291 kts 321°
2026-04-28 22:55 -19.65859 -43.80928 7141 ft 291 kts 321°
2026-04-28 22:55 -19.64321 -43.82321 7151 ft 291 kts 321°
2026-04-28 22:55 -19.62781 -43.83716 7146 ft 291 kts 321°
2026-04-28 22:56 -19.61238 -43.85114 7144 ft 291 kts 321°
2026-04-28 22:56 -19.59700 -43.86507 7139 ft 290 kts 321°
2026-04-28 22:56 -19.58166 -43.87896 7144 ft 290 kts 321°
2026-04-28 22:56 -19.56634 -43.89282 7136 ft 289 kts 321°
2026-04-28 22:57 -19.55125 -43.90647 7171 ft 289 kts 321°
2026-04-28 22:57 -19.53595 -43.92031 7171 ft 289 kts 321°
2026-04-28 22:57 -19.52043 -43.93435 7167 ft 290 kts 321°
2026-04-28 22:57 -19.50527 -43.94806 7168 ft 291 kts 321°
2026-04-28 22:58 -19.48986 -43.96198 7161 ft 291 kts 321°
2026-04-28 22:58 -19.47449 -43.97586 7155 ft 288 kts 321°
2026-04-28 22:58 -19.45978 -43.98962 7133 ft 275 kts 314°
2026-04-28 22:58 -19.45085 -44.00662 7131 ft 258 kts 283°
2026-04-28 22:59 -19.45011 -44.02513 6973 ft 250 kts 260°
2026-04-28 22:59 -19.45549 -44.04235 6612 ft 241 kts 240°
2026-04-28 22:59 -19.46510 -44.05625 6323 ft 227 kts 227°
2026-04-28 22:59 -19.47522 -44.06845 6006 ft 213 kts 226°
2026-04-28 23:00 -19.48535 -44.07890 5734 ft 195 kts 207°
2026-04-28 23:00 -19.49785 -44.08275 5555 ft 185 kts 178°
2026-04-28 23:00 -19.51002 -44.07979 5411 ft 173 kts 143°
2026-04-28 23:00 -19.51933 -44.07282 5251 ft 159 kts 142°
2026-04-28 23:01 -19.52801 -44.06629 5069 ft 150 kts 138°
2026-04-28 23:01 -19.53600 -44.05940 4953 ft 148 kts 135°
2026-04-28 23:01 -19.54373 -44.05237 4774 ft 147 kts 134°
2026-04-28 23:01 -19.55131 -44.04535 4584 ft 146 kts 134°
2026-04-28 23:02 -19.55897 -44.03823 4402 ft 147 kts 134°
2026-04-28 23:02 -19.56665 -44.03109 4209 ft 146 kts 134°
2026-04-28 23:02 -19.57428 -44.02398 4015 ft 145 kts 135°
2026-04-28 23:02 -19.58189 -44.01691 3832 ft 145 kts 135°
2026-04-28 23:03 -19.58952 -44.00981 3661 ft 147 kts 136°
2026-04-28 23:03 -19.59723 -44.00263 3467 ft 147 kts 136°
2026-04-28 23:03 -19.60486 -43.99554 3267 ft 145 kts 137°
2026-04-28 23:03 -19.61259 -43.98836 3071 ft 148 kts 137°
2026-04-28 23:04 -19.62031 -43.98120 2931 ft 147 kts 136°
2026-04-28 23:04 -19.63341 -43.96902 2809 ft 47 kts 139°
2026-04-28 23:04 -19.63499 -43.96751 2811 ft 23 kts 131°
2026-04-28 23:05 -19.63579 -43.96617 2813 ft 19 kts 116°
2026-04-28 23:05 -19.63601 -43.96555 2813 ft 4 kts 108°
2026-04-28 23:05 -19.63608 -43.96529 2816 ft 4 kts 93°
2026-04-28 23:05 -19.63606 -43.96519 2814 ft 0 kts 82°
2026-04-28 23:06 -19.63622 -43.96475 2812 ft 14 kts 115°
2026-04-28 23:06 -19.63636 -43.96382 2816 ft 14 kts 58°
2026-04-28 23:06 -19.63541 -43.96318 2812 ft 19 kts 28°
2026-04-28 23:06 -19.63433 -43.96343 2814 ft 19 kts 303°
2026-04-28 23:07 -19.63414 -43.96357 2811 ft 2 kts 26°
2026-04-28 23:07 -19.63377 -43.96334 2811 ft 0 kts 30°